METAR EVRA 181150Z 11007KT 080V140 9999 BKN012 OVC014 10/08 Q1018 R18/190095 TEMPO BKN007 OVC012 =

NOTAMs

Controllers Online

PositionControllerOnline
No controllers currently online

Booked ATC Today

No ATC booked yet.
Be the first for today!
* Times are UTC

The time is now

UTC: 

Local: 

Latvia vACC on twitter